Weather in Klaten

Indonesia     7°42′48″S   110°35′32″E
temp.,
°C
wind,
m/s
gust,
m/s
humid.,
%
clouds,
%
prec.,
mm/h
press.,
hPa
HPBL,
m
1 december, wed
wed101:00+23w2391100 1.5 100971
04:00+23w2389100 0.6 100956
07:00+25wsw347928 0.6 1011366
10:00+29sw4464100 0.0 10101300
13:00+29sw666448 0.6 10081289
16:00+26wsw677598 1.9 1008898
19:00+24wsw3687100 2.3 1011257
22:00+23w248763 0.0 1012124
2 december, thu
thu201:00+23w248965 0.0 1010151
04:00+23w2390100 0.0 101083
07:00+25w2481100 0.0 1012346
10:00+29sw446354 0.0 10111259
13:00+30sw556089 0.4 10091420
16:00+28sw566882 0.4 10091006
19:00+24wsw3587100 0.5 1011191
22:00+24w2589100 0.0 1012171
3 december, fri
fri301:00+24w3586100 0.0 1010176
04:00+23w2485100 0.0 1010100
07:00+25wsw3582100 0.0 1012320
10:00+30sw566030 0.0 10111339
13:00+31sw6754100 0.0 10091653
16:00+28sw566271 0.0 10091116
19:00+25sw2582100 0.0 1011216
22:00+24w2485100 0.0 1012131
4 december, sat
sat401:00+23w2486100 0.0 101098
04:00+23w228865 0.0 101043
07:00+25wsw357996 0.0 1012374
10:00+30wsw455938 0.0 10101332
13:00+29sw676382 0.9 10081178
16:00+28wsw6767100 0.9 10081164
19:00+24wsw3687100 1.9 1010230
22:00+24w2486100 0.8 1011143
5 december, sun
sun501:00+24w2588100 0.8 1009178
04:00+24w2487100 0.8 1009120
07:00+24w3684100 0.9 1011362
10:00+28w5767100 0.2 10111088
13:00+29wsw6762100 0.3 10081318
16:00+27w5772100 0.8 1008947
19:00+24wsw2586100 1.1 1010199
22:00+24wsw2486100 0.1 1011179